Date,TemperatureHighF,TemperatureAvgF,TemperatureLowF,DewpointHighF,DewpointAvgF,DewpointLowF,HumidityHigh,HumidityAvg,HumidityLow,PressureMaxIn,PressureMinIn,WindSpeedMaxMPH,WindSpeedAvgMPH,GustSpeedMaxMPH,PrecipitationSumIn
2013-6-1,90,70,49,60,49,44,86,53,23,0.00,0.00,6,2,14,0.00
2013-6-2,73,58,50,53,48,41,85,70,49,0.00,0.00,4,2,11,0.00
2013-6-3,63,55,48,51,48,45,91,79,64,0.00,0.00,11,5,23,0.00
2013-6-4,60,54,53,50,50,49,88,83,69,0.00,0.00,10,4,21,0.00
2013-6-5,65,56,51,51,49,48,90,80,60,0.00,0.00,10,4,20,0.00
2013-6-6,67,56,51,52,50,48,92,80,58,0.00,0.00,7,3,17,0.00
2013-6-7,79,62,50,60,52,48,95,74,45,0.00,0.00,5,3,13,0.00
2013-6-8,79,62,52,59,53,48,90,73,46,0.00,0.00,12,4,28,0.00
2013-6-9,64,58,55,53,52,52,92,83,68,0.00,0.00,8,4,17,0.00
2013-6-10,61,57,55,54,53,51,93,85,72,0.00,0.00,5,2,12,0.00
2013-6-11,77,63,50,55,52,46,88,70,34,0.00,0.00,7,2,15,0.00
2013-6-12,83,60,37,50,41,24,93,59,18,0.00,0.00,7,2,18,0.00
2013-6-13,84,62,37,46,41,35,91,53,23,0.00,0.00,6,2,15,0.00
2013-6-14,82,63,45,49,45,40,90,60,23,0.00,0.00,8,3,16,0.00
2013-6-15,74,58,40,51,46,37,90,68,40,0.00,0.00,6,2,16,0.00
2013-6-16,84,63,39,51,45,37,92,59,26,0.00,0.00,8,3,20,0.00
2013-6-17,74,57,42,53,47,39,91,72,46,0.00,0.00,10,3,21,0.00
2013-6-18,70,60,48,50,47,43,90,64,38,0.00,0.00,9,4,22,0.00
2013-6-19,75,60,41,47,44,39,91,60,29,0.00,0.00,8,3,17,0.00
2013-6-20,80,62,41,48,43,38,91,57,27,0.00,0.00,7,3,20,0.00
2013-6-21,84,65,42,51,44,39,91,54,21,0.00,0.00,6,2,16,0.00
2013-6-22,89,68,44,51,46,41,89,52,22,0.00,0.00,6,3,21,0.00
2013-6-23,66,60,53,58,54,50,90,81,67,0.00,0.00,8,3,19,0.00
2013-6-24,61,58,55,56,54,53,93,89,83,0.00,0.00,4,2,10,0.00
2013-6-25,63,61,58,61,59,56,94,93,91,0.00,0.00,4,2,14,0.04
2013-6-26,75,66,60,64,61,58,94,85,66,0.00,0.00,6,3,13,1.46
2013-6-27,86,70,55,68,59,53,95,72,40,0.00,0.00,6,2,13,0.00
2013-6-28,91,73,55,70,60,53,94,68,36,0.00,0.00,5,2,16,0.00
2013-6-29,92,76,54,68,59,52,92,61,32,0.00,0.00,7,2,15,0.00
2013-6-30,86,72,54,62,57,51,90,62,40,0.00,0.00,5,2,12,0.00